Regional Weather Roundup
Issued by NWS Cleveland, OH

Home | Current Version | Previous Version | Text Only | Print | Product List | Glossary Off
Versions: 1 2 3 4 5 6 7 8 9 10 11 12 13 14 15 16 17 18 19 20 21 22 23 24 25 26 27 28 29 30 31 32 33 34 35 36 37 38 39 40 41 42 43 44 45 46 47 48 49 50

000
ASUS41 KCLE 170912
RWRCLE
OHIO REGIONAL WEATHER ROUNDUP
NATIONAL WEATHER SERVICE WILMINGTON, OH
400 AM EST TUE JAN 17 2017

NOTE: "FAIR" INDICATES FEW OR NO CLOUDS BELOW 12,000 FEET WITH NO
SIGNIFICANT WEATHER AND/OR OBSTRUCTIONS TO VISIBILITY.

OHZ001>008-015>018-024>027-034-035-043-044-171000-
   NORTHWEST OHIO

CITY           SKY/WX    TMP DP  RH WIND       PRES   REMARKS
DEFIANCE       FOG       39  36  89 NE5       29.88F VSB 1/4
FINDLAY        CLOUDY    49  46  90 S16       29.88F
TOLEDO EXPRESS CLOUDY    36  36 100 E7        29.89F FOG
TOLEDO EXEC    FOG       37  37 100 E5        29.92F VSB 3/4
LIMA           CLOUDY    51  51 100 S13       29.89F
$$

OHZ009>014-019>023-028>033-038-089-171000-
   NORTHEAST OHIO

CITY           SKY/WX    TMP DP  RH WIND       PRES   REMARKS
CLE-HOPKINS    LGT RAIN  44  41  89 S13       30.00F FOG
CLE-LAKEFRONT  LGT RAIN  43  41  93 S18G24    29.99F FOG
CUY CO. ARPT   NOT AVBL
LORAIN-ELYRIA  RAIN      42  40  92 S9        29.97F FOG
ASHTABULA      LGT RAIN  39  39 100 S7        30.04F FOG
AKRON-CANTON   LGT RAIN  43  40  89 SE9       30.02F FOG
WOOSTER        LGT RAIN  39  38  96 SE7       30.00F VSB 1/2
MANSFIELD      LGT RAIN  48  48 100 SE12      29.97F FOG
YOUNGSTOWN     LGT RAIN  40  38  93 SE9       30.05F FOG
$$

OHZ042-051>053-060>062-070>072-077>081-171000-
  SOUTHWEST OHIO

CITY           SKY/WX    TMP DP  RH WIND       PRES   REMARKS
CINC-COVINGTON LGT RAIN  57  56  96 S17G24    29.93F
CINC-LUNKEN    CLOUDY    57  56  96 S16       29.95F
HAMILTON       LGT RAIN  57  56  96 S6        29.94F
DAYTON         CLOUDY    54  53  97 S12       29.92F
WRIGHT-PAT AFB CLOUDY    54  54 100 S7        29.92F
DAYTON GENERAL CLOUDY    56  54  93 S16       29.92F
WILMINGTON     LGT RAIN  55  54  96 S18       29.94F
$$

OHZ036-037-039>041-045>050-054>059-063>069-073>076-082>088-171000-
  CENTRAL AND SOUTHEAST OHIO

CITY           SKY/WX    TMP DP  RH WIND       PRES   REMARKS
COLUMBUS       CLOUDY    53  51  93 SE10      29.98F
OSU AIRPORT    CLOUDY    49  49 100 SE9       29.96F FOG
BOLTON FIELD   CLOUDY    49  49 100 S9        29.97F
RICKENBACK AFB NOT AVBL
NEWARK         CLOUDY    43  42  97 CALM      29.99F FOG
MARION         RAIN      49  48  97 S14       29.96F FOG
LANCASTER      MOCLDY    52  50  93 SE12      30.00F
ZANESVILLE     LGT RAIN  50  48  93 SE6       30.01F FOG
NEW PHILLY     CLOUDY    41  41 100 SE5       30.03F FOG
$$




USA.gov is the U.S. government's official web portal to all federal, state and local government web resources and services.